Location: Unspecified
(0.0000°N, 0.0000°E)
Time: 21:49:27
(UTC+00:00)

Alouette 1 - Pass Details

Date: 26 October 2021
Orbit: 985 x 1019 km, 80.5° (Epoch: 07 December)

Event Time Altitude Azimuth Distance (km) Brightness Sun altitude
Rises 18:32:32 0° 349° (NNW) 3,735 9.0 -11.8°
Reaches altitude 10° 18:35:06 10° 346° (NNW) 2,783 8.4 -12.5°
Maximum altitude 18:41:28 67° 265° (W) 1,082 6.5 -14.0°
Drops below altitude 10° 18:47:48 10° 183° (S) 2,771 8.6 -15.6°
Sets 18:50:21 0° 180° (S) 3,717 9.2 -16.2°
